Regional Weather Roundup
Issued by NWS

Home | Current Version | Previous Version | Text Only | Print | Product List | Glossary On
Versions: 1 2 3 4 5 6 7 8 9 10 11 12 13 14 15 16 17 18 19 20 21 22 23 24 25 26 27 28 29 30 31 32 33 34 35 36 37 38 39 40 41 42 43 44 45 46 47 48 49 50
000
ASCA44 KEWX 180420
RWRMX

LATIN AMERICA AND CARIBBEAN REGIONAL WEATHER ROUNDUP
NATIONAL WEATHER SERVICE AUSTIN/SAN ANTONIO TX
1100 PM CDT THU APR 17 2014

NOTE: "FAIR" INDICATED FEW OR NO CLOUDS BELOW 12,000 FEET WITH NO
SIGNIFICANT WEATHER AND/OR OBSTRUCTIONS TO VISIBILITY.

BAJA CALIFORNIA

CITY           SKY/WX    TMP DP  RH WIND       PRES   REMARKS
LA PAZ         CLOUDY    70  55  60 S9        29.90S
MEXICALI       MOCLDY    70  52  52 SE7       29.79R
S.J. DEL CABO  MOCLDY    72  59  64 N6        29.89R
TIJUANA        CLOUDY    59  50  72 S8        29.94R

NORTHWESTERN MEXICO

CITY           SKY/WX    TMP DP  RH WIND       PRES   REMARKS
CULIACAN       MOCLDY    73  63  68 CALM      29.90R
HERMOSILLO     CLOUDY    75  46  35 W3        29.91R
LOS MOCHIS       N/A    N/A N/A N/A MISG        N/A
OBREGON          N/A    N/A N/A N/A MISG        N/A

NORTHEASTERN MEXICO

CITY           SKY/WX    TMP DP  RH WIND       PRES   REMARKS
MONTERREY      PTCLDY    68  59  73 E14       30.05R
SALTILLO       CLEAR     61  50  67 N7        30.17R

WESTERN MEXICO

CITY           SKY/WX    TMP DP  RH WIND       PRES   REMARKS
AGUASCALIENTES PTCLDY    68  25  19 CALM      30.19R
DEL BAJIO      PTCLDY    66  32  28 CALM      30.18R
GUADALAJARA    PTCLDY    70  34  26 SW6       30.12R
MAZATLAN       MOCLDY    72  63  73 SW9       29.88R
P. VALLARTA    CLEAR     75  70  83 CALM      29.88R
ZACATECAS      PTCLDY    57  30  35 N8        30.25R

CENTRAL MEXICO

CITY           SKY/WX    TMP DP  RH WIND       PRES   REMARKS
MEXICO CITY    PTCLDY    64  46  52 N8        30.28R
MORELIA        PTCLDY    64  45  48 S3        30.18R
QUERETARO      PTCLDY    70  39  32 NW6       30.24R
S. LUIS POTOSI MOCLDY    66  23  19 E5        30.15R
TAMPICO        MOCLDY    72  66  83 NE9       29.98R
TOLUCA         PTCLDY    54  36  50 N5        30.35S

SOUTHERN MEXICO

CITY           SKY/WX    TMP DP  RH WIND       PRES   REMARKS
ACAPULCO       PTCLDY    81  77  89 W3        29.84R
VERACRUZ       MOCLDY    73  70  88 N6        29.94R

YUCATAN PENINSULA

CITY           SKY/WX    TMP DP  RH WIND       PRES   REMARKS
CANCUN         PTCLDY    75  73  94 CALM      29.98R
COZUMEL        PTCLDY    70  70 100 CALM      29.98R
MERIDA         CLEAR     82  70  65 SE6       29.91R
TAPACHULA      PTCLDY    79  75  89 CALM      29.89R
TUX. GUTIERREZ CLOUDY    81  66  61 NW9       29.91R
VILLAHERMOSA   CLEAR     75  72  88 CALM      29.88R

CENTRAL AMERICA

CITY           SKY/WX    TMP DP  RH WIND       PRES   REMARKS
MANAGUA        PTCLDY    82  68  61 E5        29.86R

CARIBBEAN

CITY           SKY/WX    TMP DP  RH WIND       PRES   REMARKS
ARUBA          PTCLDY    79  73  83 E18       29.89F
CURACAO        PTCLDY    79  73  83 E15       29.94S
KINGSTON       PTCLDY    79  68  69 E6        29.94S
NASSAU         PTCLDY    77  66  69 E9        30.12R
SAN JUAN       MOCLDY    77  72  83 E8        30.05F
SANTO DOMINGO  PTCLDY    77  73  88 NE3       30.00S
ST. CROIX      MOCLDY    79  68  69 E20G25    30.04
ST. THOMAS     PTCLDY    77  72  83 E13       30.05F

$$




USA.gov is the U.S. government's official web portal to all federal, state and local government web resources and services.